FW1932 Weather Reports


time (UTC)temp
C
wind
direction
speed
KPH
gust
KPH
rain 1hr
cm
rain 24hr
cm
rain mn
cm
humidity
%
barometer
mb
20260510063008 15 232 0.0 1.6 0.00 0.00 0.00 78 1012.6
20260510061506 15 231 0.0 0.0 0.00 0.00 0.00 80 1012.6
20260510060009 15 231 0.0 0.0 0.00 0.00 0.00 82 1012.5
20260510054603 13 232 0.0 0.0 0.00 0.00 0.00 87 1012.7
20260510053002 11 231 0.0 0.0 0.00 0.00 0.00 90 1012.7
20260510051502 11 231 0.0 0.0 0.00 0.00 0.00 90 1012.7
20260510050001 11 231 0.0 0.0 0.00 0.00 0.00 90 1012.8
20260510044603 11 232 0.0 0.0 0.00 0.00 0.00 90 1012.8
20260510043109 11 231 0.0 0.0 0.00 0.00 0.00 89 1012.7
20260510041600 11 231 0.0 0.0 0.00 0.00 0.00 90 1012.8
20260510040109 11 231 0.0 0.0 0.00 0.00 0.00 90 1013.1
20260510034555 11 231 0.0 0.0 0.00 0.00 0.00 89 1013.1
20260510033055 11 231 0.0 0.0 0.00 0.00 0.00 89 1013.1
20260510031557 11 231 0.0 0.0 0.00 0.00 0.00 89 1013.2
20260510030152 11 231 0.0 0.0 0.00 0.00 0.00 89 1013.3
20260510024550 11 232 0.0 0.0 0.00 0.00 0.00 89 1013.2
20260510023048 12 231 0.0 0.0 0.00 0.00 0.00 88 1013.4
20260510021548 12 232 0.0 0.0 0.00 0.00 0.00 88 1013.3
20260510020046 12 231 0.0 0.0 0.00 0.00 0.00 88 1013.2
20260510014545 12 231 0.0 0.0 0.00 0.00 0.00 88 1013.3
20260510013043 12 232 0.0 0.0 0.00 0.00 0.00 88 1013.4
20260510011541 12 231 0.0 0.0 0.00 0.00 0.00 87 1013.4
20260510010039 12 231 0.0 0.0 0.00 0.00 0.00 86 1013.6
20260510004537 12 231 0.0 0.0 0.00 0.00 0.00 86 1013.6
20260510003037 12 231 0.0 0.0 0.00 0.00 0.00 87 1013.7
20260510001535 12 232 0.0 1.6 0.00 0.00 0.00 87 1013.8
20260510000033 13 231 0.0 0.0 0.00 0.00 0.00 85 1013.8
20260509234534 13 231 0.0 0.0 0.00 0.00 0.00 84 1014.1
20260509233026 14 231 0.0 0.0 0.00 0.00 0.00 84 1014.2
20260509231524 14 231 0.0 0.0 0.00 0.00 0.00 82 1014.2
20260509230022 15 231 0.0 0.0 0.00 0.00 0.00 81 1014.1
20260509224520 15 231 0.0 0.0 0.00 0.00 0.00 81 1014.3
20260509223022 15 231 0.0 0.0 0.00 0.00 0.00 79 1014.4
20260509221520 15 232 0.0 0.0 0.00 0.00 0.00 78 1014.5
20260509220017 15 232 0.0 1.6 0.00 0.00 0.00 79 1014.6
20260509214513 15 202 0.0 0.0 0.00 0.00 0.00 75 1014.5
20260509213015 16 204 0.0 0.0 0.00 0.00 0.00 75 1014.5
20260509211514 16 204 0.0 0.0 0.00 0.00 0.00 72 1014.5
20260509210015 16 204 0.0 0.0 0.00 0.00 0.00 70 1014.5
20260509204511 17 204 0.0 0.0 0.00 0.00 0.00 68 1014.6
20260509203010 18 204 0.0 0.0 0.00 0.00 0.00 65 1014.5
20260509201510 18 111 0.0 0.0 0.00 0.00 0.00 64 1014.5
20260509200010 18 111 0.0 1.6 0.00 0.00 0.00 62 1014.4
20260509194509 18 111 0.0 1.6 0.00 0.00 0.00 60 1014.3
20260509193012 18 117 0.0 0.0 0.00 0.00 0.00 61 1014.2
20260509191509 19 117 0.0 0.0 0.00 0.00 0.00 61 1014.2
20260509190008 20 117 0.0 0.0 0.00 0.00 0.00 59 1014.2
20260509184511 20 117 0.0 1.6 0.00 0.00 0.00 57 1014.1
20260509183007 21 117 0.0 1.6 0.00 0.00 0.00 55 1014.2
20260509181508 21 113 0.0 0.0 0.00 0.00 0.00 53 1014.2
20260509180007 22 113 0.0 0.0 0.00 0.00 0.00 52 1014.2
20260509174505 22 113 0.0 1.6 0.00 0.00 0.00 50 1014.2
20260509173004 23 108 0.0 1.6 0.00 0.00 0.00 50 1014.1
20260509171513 23 105 0.0 1.6 0.00 0.00 0.00 48 1013.9
20260509170009 23 105 0.0 1.6 0.00 0.00 0.00 48 1013.9
20260509164502 23 109 0.0 1.6 0.00 0.00 0.00 46 1014.0
20260509163005 24 96 0.0 1.6 0.00 0.00 0.00 46 1014.2
20260509161602 24 96 0.0 1.6 0.00 0.00 0.00 46 1014.2
20260509160059 25 154 0.0 3.2 0.00 0.00 0.00 44 1014.5
20260509154600 25 98 0.0 1.6 0.00 0.00 0.00 44 1014.5
20260509153101 26 98 0.0 1.6 0.00 0.00 0.00 42 1014.5
20260509151600 26 122 0.0 1.6 0.00 0.00 0.00 40 1014.5
20260509150055 27 79 0.0 1.6 0.00 0.00 0.00 38 1014.6
20260509144552 27 243 0.0 1.6 0.00 0.00 0.00 39 1014.8
20260509143054 26 71 0.0 8.0 0.00 0.00 0.00 37 1015.0
20260509141548 27 85 0.0 3.2 0.00 0.00 0.00 39 1015.3
20260509140056 27 77 0.0 1.6 0.00 0.00 0.00 37 1015.5
20260509134607 26 86 0.0 3.2 0.00 0.00 0.00 39 1015.7
20260509133042 25 245 0.0 4.8 0.00 0.00 0.00 41 1016.0
20260509131549 26 70 0.0 4.8 0.00 0.00 0.00 40 1016.1
20260509130040 26 68 0.0 3.2 0.00 0.00 0.00 40 1016.2
20260509124535 26 85 0.0 1.6 0.00 0.00 0.00 40 1016.3
20260509123034 26 232 0.0 1.6 0.00 0.00 0.00 44 1016.5
20260509121531 25 241 0.0 3.2 0.00 0.00 0.00 45 1016.7
20260509120029 25 113 0.0 3.2 0.00 0.00 0.00 47 1016.9
20260509114528 25 87 0.0 3.2 0.00 0.00 0.00 47 1017.1
20260509113025 25 79 0.0 4.8 0.00 0.00 0.00 48 1017.2
20260509111520 24 77 0.0 4.8 0.00 0.00 0.00 50 1017.5
20260509110017 23 101 0.0 3.2 0.00 0.00 0.00 55 1017.8
20260509104514 22 77 0.0 3.2 0.00 0.00 0.00 57 1018.0
20260509103011 22 96 0.0 3.2 0.00 0.00 0.00 57 1018.2
20260509101510 22 90 0.0 4.8 0.00 0.00 0.00 60 1018.4
20260509100018 22 224 0.0 3.2 0.00 0.00 0.00 65 1018.5
20260509094511 22 246 0.0 4.8 0.00 0.00 0.00 63 1018.6
20260509093002 21 245 0.0 1.6 0.00 0.00 0.00 67 1018.6
20260509091601 20 245 0.0 6.4 0.00 0.00 0.00 69 1018.8
20260509090058 20 229 0.0 4.8 0.00 0.00 0.00 69 1018.9
20260509084558 20 251 0.0 1.6 0.00 0.00 0.00 67 1019.0
20260509083053 19 252 0.0 1.6 0.00 0.00 0.00 71 1019.2
20260509081552 18 244 0.0 4.8 0.00 0.00 0.00 72 1019.4
20260509080051 18 141 0.0 0.0 0.00 0.00 0.00 68 1019.4
20260509074557 18 212 0.0 0.0 0.00 0.00 0.00 73 1019.3
20260509073045 17 87 0.0 0.0 0.00 0.00 0.00 74 1019.5
20260509071540 16 86 0.0 0.0 0.00 0.00 0.00 78 1019.5
20260509070038 15 86 0.0 0.0 0.00 0.00 0.00 80 1019.5
20260509064546 15 80 0.0 0.0 0.00 0.00 0.00 81 1019.7